DW1437 Weather Reports


time (UTC)temp
C
wind
direction
speed
KPH
gust
KPH
rain 1hr
cm
rain 24hr
cm
rain mn
cm
humidity
%
barometer
mb
20260510212412 6 291 0.0 3.2 0.00 0.00 0.00 77 1015.1
20260510211346 6 54 0.0 0.0 0.00 0.00 0.00 75 1014.8
20260510210354 7 54 0.0 0.0 0.00 0.00 0.00 73 1014.8
20260510205345 7 54 0.0 0.0 0.00 0.00 0.00 72 1014.7
20260510204406 7 54 0.0 0.0 0.00 0.00 0.00 70 1014.8
20260510203408 8 54 0.0 0.0 0.00 0.00 0.00 68 1014.8
20260510202341 8 54 0.0 0.0 0.00 0.00 0.00 67 1014.8
20260510201405 9 54 0.0 0.0 0.00 0.00 0.00 66 1014.8
20260510194047 11 54 0.0 0.0 0.00 0.00 0.00 63 1014.8
20260510192012 11 54 0.0 3.2 0.00 0.00 0.00 61 1014.8
20260510191013 11 54 0.0 0.0 0.00 0.00 0.00 61 1014.9
20260510190037 11 54 0.0 0.0 0.00 0.00 0.00 60 1015.0
20260510185044 12 57 0.0 0.0 0.00 0.00 0.00 58 1015.0
20260510182914 12 31 0.0 1.6 0.00 0.00 0.00 56 1015.1
20260510181843 13 31 0.0 6.4 0.00 0.00 0.00 55 1015.0
20260510180841 13 34 3.2 11.3 0.00 0.00 0.00 53 1014.9
20260510175841 13 49 1.6 11.3 0.00 0.00 0.00 55 1014.9
20260510174859 13 66 1.6 3.2 0.00 0.00 0.00 60 1014.9
20260510173832 13 42 0.0 6.4 0.00 0.00 0.00 57 1015.0
20260510172830 13 23 1.6 11.3 0.00 0.00 0.00 56 1015.0
20260510171825 13 43 1.6 11.3 0.00 0.00 0.00 57 1015.0
20260510170845 13 51 0.0 1.6 0.00 0.00 0.00 58 1015.2
20260510165854 13 44 0.0 4.8 0.00 0.00 0.00 55 1015.4
20260510164916 13 38 3.2 11.3 0.00 0.00 0.00 54 1015.4
20260510163906 14 40 3.2 11.3 0.00 0.00 0.00 57 1015.5
20260510162843 14 38 1.6 11.3 0.00 0.00 0.00 55 1015.7
20260510161907 13 9 0.0 3.2 0.00 0.00 0.00 58 1015.7
20260510155805 14 21 1.6 8.0 0.00 0.00 0.00 56 1016.0
20260510153703 14 54 0.0 6.4 0.00 0.00 0.00 60 1016.1
20260510152707 13 67 1.6 11.3 0.00 0.00 0.00 59 1016.2
20260510151654 14 73 1.6 11.3 0.00 0.00 0.00 58 1016.3
20260510150650 13 42 3.2 8.0 0.00 0.00 0.00 58 1016.5
20260510144500 14 58 3.2 16.1 0.00 0.00 0.00 60 1016.8
20260510141246 13 30 1.6 8.0 0.00 0.00 0.00 63 1017.1
20260510140226 13 21 1.6 1.6 0.00 0.00 0.00 66 1017.1
20260510135211 13 28 4.8 17.7 0.00 0.00 0.00 64 1017.3
20260510134159 14 12 3.2 17.7 0.00 0.00 0.00 65 1017.1
20260510133145 14 11 4.8 16.1 0.00 0.00 0.00 66 1017.3
20260510132125 13 17 1.6 11.3 0.00 0.00 0.00 69 1017.5
20260510130016 12 61 3.2 11.3 0.00 0.00 0.00 68 1017.5
20260510125040 13 349 1.6 11.3 0.00 0.00 0.00 69 1017.6
20260510124033 13 50 3.2 11.3 0.00 0.00 0.00 69 1017.8
20260510123030 12 40 3.2 11.3 0.00 0.00 0.00 70 1017.8
20260510122028 12 13 3.2 9.7 0.00 0.00 0.00 71 1018.0
20260510121034 12 29 3.2 16.1 0.00 0.00 0.00 72 1018.2
20260510120030 12 38 4.8 16.1 0.00 0.00 0.00 72 1018.3
20260510114959 12 60 3.2 12.9 0.00 0.00 0.00 73 1018.4
20260510114021 12 19 3.2 12.9 0.00 0.00 0.00 74 1018.6
20260510113003 12 39 1.6 9.7 0.00 0.00 0.00 75 1018.7
20260510111956 12 35 1.6 9.7 0.00 0.00 0.00 76 1018.8
20260510111005 11 331 3.2 9.7 0.00 0.00 0.00 78 1018.8
20260510105953 11 55 3.2 11.3 0.00 0.00 0.00 78 1019.0
20260510105008 10 346 3.2 16.1 0.00 0.00 0.00 79 1019.1
20260510103954 10 9 4.8 16.1 0.00 0.00 0.00 79 1019.1
20260510102948 10 65 4.8 12.9 0.00 0.00 0.00 79 1019.1
20260510102000 10 41 3.2 14.5 0.00 0.00 0.00 79 1019.2
20260510095840 10 90 1.6 11.3 0.00 0.00 0.00 81 1019.2
20260510094808 10 5 3.2 11.3 0.00 0.00 0.00 81 1019.3
20260510093826 9 51 1.6 8.0 0.00 0.00 0.00 82 1019.4
20260510092845 9 36 3.2 9.7 0.00 0.00 0.00 83 1019.4
20260510090707 8 36 3.2 11.3 0.00 0.00 0.00 84 1019.7
20260510085647 8 29 1.6 9.7 0.00 0.00 0.00 85 1019.6
20260510084707 8 11 0.0 11.3 0.00 0.00 0.00 85 1019.6
20260510083651 8 11 1.6 11.3 0.00 0.00 0.00 85 1019.7
20260510082712 8 5 1.6 19.3 0.00 0.00 0.00 86 1019.7
20260510081729 8 355 1.6 11.3 0.00 0.00 0.00 87 1019.7
20260510080752 8 42 3.2 9.7 0.00 0.00 0.00 87 1019.7
20260510074611 8 49 0.0 12.9 0.00 0.00 0.00 87 1019.7
20260510073605 8 23 3.2 12.9 0.00 0.00 0.00 88 1019.7
20260510072601 8 50 3.2 11.3 0.00 0.00 0.00 88 1019.6
20260510071544 8 49 1.6 6.4 0.00 0.00 0.00 88 1019.5
20260510070515 8 39 0.0 12.9 0.00 0.00 0.00 88 1019.5
20260510065448 8 57 1.6 9.7 0.00 0.00 0.00 88 1019.5
20260510064452 8 0 3.2 11.3 0.00 0.00 0.00 89 1019.3
20260510063431 8 14 3.2 11.3 0.00 0.00 0.00 89 1019.3
20260510061231 8 28 0.0 1.6 0.00 0.00 0.00 89 1019.3
20260510060237 8 38 1.6 6.4 0.00 0.00 0.00 89 1019.2
20260510055259 8 307 0.0 6.4 0.00 0.00 0.00 89 1019.3
20260510054301 8 11 1.6 11.3 0.00 0.00 0.00 89 1019.2
20260510053227 8 34 1.6 11.3 0.00 0.00 0.00 89 1019.1
20260510052218 8 5 1.6 9.7 0.00 0.00 0.00 89 1019.2
20260510051217 8 54 1.6 11.3 0.00 0.00 0.00 89 1019.2
20260510045100 8 28 1.6 11.3 0.00 0.00 0.00 89 1019.3
20260510044123 8 36 0.0 3.2 0.00 0.00 0.00 89 1019.4
20260510043145 8 38 0.0 1.6 0.00 0.00 0.00 89 1019.4
20260510042114 8 51 0.0 9.7 0.00 0.00 0.00 89 1019.4
20260510041104 8 44 0.0 9.7 0.00 0.00 0.00 89 1019.5
20260510040128 8 31 0.0 6.4 0.00 0.00 0.00 89 1019.5
20260510035145 8 0 0.0 1.6 0.00 0.00 0.00 89 1019.6
20260510034203 8 34 1.6 9.7 0.00 0.00 0.00 89 1019.6
20260510033205 8 55 1.6 9.7 0.00 0.00 0.00 89 1019.5
20260510032205 8 29 0.0 0.0 0.00 0.00 0.00 88 1019.6
20260510031219 8 25 0.0 1.6 0.00 0.00 0.00 88 1019.6
20260510030153 8 23 0.0 6.4 0.00 0.00 0.00 88 1019.7
20260510025212 8 44 0.0 1.6 0.00 0.00 0.00 88 1019.7
20260510024206 8 0 0.0 8.0 0.00 0.00 0.00 88 1019.7
20260510020926 9 14 0.0 9.7 0.00 0.00 0.00 87 1019.7
20260510015944 9 54 1.6 14.5 0.00 0.00 0.00 87 1019.7
20260510014958 9 29 3.2 14.5 0.00 0.00 0.00 87 1019.7
20260510013951 10 49 1.6 8.0 0.00 0.00 0.00 86 1019.7
20260510011845 10 32 0.0 0.0 0.00 0.00 0.00 86 1019.8
20260510010831 10 23 0.0 9.7 0.00 0.00 0.00 86 1019.9
20260510005841 10 19 1.6 9.7 0.00 0.00 0.00 86 1019.8
20260510004827 10 28 0.0 6.4 0.00 0.00 0.00 86 1019.8
20260510003837 10 45 1.6 6.4 0.00 0.00 0.00 85 1019.6
20260510002846 10 44 1.6 11.3 0.00 0.00 0.00 85 1019.6
20260510001844 10 26 1.6 11.3 0.00 0.00 0.00 85 1019.5
20260510000843 10 40 1.6 4.8 0.00 0.00 0.00 85 1019.6
20260509235825 10 53 0.0 9.7 0.00 0.00 0.00 84 1019.6
20260509233700 10 40 0.0 0.0 0.00 0.00 0.00 84 1019.6
20260509232652 10 28 0.0 0.0 0.00 0.00 0.00 84 1019.6
20260509230542 10 24 0.0 6.4 0.00 0.00 0.00 84 1019.5
20260509225526 10 42 0.0 1.6 0.00 0.00 0.00 83 1019.4
20260509223406 11 22 1.6 1.6 0.00 0.00 0.00 83 1019.2
20260509222404 11 23 1.6 11.3 0.00 0.00 0.00 83 1019.1
20260509220247 11 41 1.6 4.8 0.00 0.08 0.00 83 1019.0
20260509215228 11 90 1.6 11.3 0.00 0.10 0.00 82 1018.9
20260509214244 12 38 3.2 12.9 0.00 0.10 0.00 82 1019.0